Regional Weather Roundup
Issued by NWS

Home | Current Version | Previous Version | Text Only | Print | Product List | Glossary Off
Versions: 1 2 3 4 5 6 7 8 9 10 11 12 13 14 15 16 17 18 19 20 21 22 23 24 25 26 27 28 29 30 31 32 33 34 35 36 37 38 39 40 41 42 43 44 45 46 47 48 49 50

000
ASUS45 KABQ 020710
RWRNM
NEW MEXICO REGIONAL WEATHER ROUNDUP
NATIONAL WEATHER SERVICE ALBUQUERQUE NM
100 AM MDT SUN AUG 02 2015

NOTE: "FAIR" MEANS FEW OR NO CLOUDS BELOW 12,000 FEET AGL WITH NO
       SIGNIFICANT WEATHER OR OBSTRUCTIONS TO VISION.

      THIS PRODUCT IS RELEASED AS TWO VERSIONS.  ONE VERSION NEAR
      THE TOP OF THE HOUR CONTAINING PRELIMINARY DATA FROM ALBUQUERQUE
      AND OTHER STATIONS.  A FINAL VERSION WITH ADDITIONAL DATA IS
      ISSUED ABOUT 10 MINUTES AFTER THE HOUR.

NMZ501-503-504-510>518-020800-
NORTHWEST PLATEAU/NORTHCENTRAL MOUNTAINS

CITY           SKY/WX    TMP DP  RH WIND       PRES   REMARKS
FARMINGTON     CLEAR     68  57  68 SE6       30.17F
LOS ALAMOS     MOCLDY    61  56  84 CALM      30.32F
SANTA FE       CLOUDY    65  58  78 CALM      30.26F
TAOS           MOCLDY    57  45  62 SE6       30.32S
ANGEL FIRE     CLOUDY    50  50  97 CALM      30.41F

$$
NMZ402-403-502-505>509-020800-
WESTCENTRAL MOUNTAINS/SOUTHWEST MOUNTAINS

CITY           SKY/WX    TMP DP  RH WIND       PRES   REMARKS
GALLUP         MOCLDY    63  55  75 SE6       30.25F
GRANTS         CLOUDY    58  57  94 SE9       30.29F
SILVER CITY      N/A     68  57  68 N9        30.19S

$$
NMZ407-409-411-412-020800-
SOUTHERN DESERTS

CITY           SKY/WX    TMP DP  RH WIND       PRES   REMARKS
LORDSBURG      FAIR      70  61  73 CALM      30.09R
DEMING         PTCLDY    71  60  68 W6        30.08R
LAS CRUCES     PTCLDY    75  58  54 NE3       30.10S
HOLLOMAN AFB   PTCLDY    82  52  35 SE7       30.05S
ALAMOGORDO     MOCLDY    82  50  32 E6        30.07F
T OR C         CLOUDY    74  59  59 NE12      30.15R

$$
NMZ519>523-020800-
CENTRAL VALLEYS/CENTRAL HIGHLANDS

CITY           SKY/WX    TMP DP  RH WIND       PRES   REMARKS
ALBUQUERQUE    LGT RAIN  66  62  87 SE7       30.22F
DOUBLE EAGLE   DRIZZLE   63  59  88 W7        30.24F
MORIARTY ARPT    N/A     64  58  82 E3        30.27F
CLINES CORNERS CLOUDY    61  57  87 W6        30.30S
BELEN          FAIR      65  60  84 NE3       30.21F
SOCORRO        CLOUDY    69  58  69 NW5       30.20R

$$
NMZ524>526-539-540-020800-
SOUTHCENTRAL MOUNTAINS

CITY           SKY/WX    TMP DP  RH WIND       PRES   REMARKS
RUIDOSO          N/A    N/A N/A N/A MISG        N/A

$$
NMZ527>531-020800-
NORTHEAST HIGHLANDS/NORTHEAST PLAINS

CITY           SKY/WX    TMP DP  RH WIND       PRES   REMARKS
RATON          MOCLDY    61  57  87 VRB3      30.23F
CLAYTON        CLOUDY    69  63  81 CALM      30.12F

$$
NMZ532>537-020800-
EASTCENTRAL PLAINS

CITY           SKY/WX    TMP DP  RH WIND       PRES   REMARKS
TUCUMCARI      MOCLDY    70  65  84 S3        30.09F
CANNON AFB     MOCLDY    68  63  84 SW6       30.12F
CLOVIS AIRPORT MOCLDY    68  63  83 E8        30.13F

$$
NMZ028-029-538-020800-
SOUTHEAST PLAINS

CITY           SKY/WX    TMP DP  RH WIND       PRES   REMARKS
ROSWELL        MOCLDY    77  61  57 S9        30.08F
ARTESIA        MOCLDY    77  63  61 SE15      30.07F
CARLSBAD       MOCLDY    79  63  57 E8        30.05S
HOBBS            N/A    N/A N/A N/A MISG        N/A


$$


USA.gov is the U.S. government's official web portal to all federal, state and local government web resources and services.